• In India
  • List of Countries
  • For 7 days
  • Water Temperature
  • Satellite Maps
  • Weather Map
  • Weather Widgets
  • user-avatar
    Login

    Hourly Weather Brisbane

    Today, 24 June, Sunday

    Time Temperature Precipitation Wind Pressure Humidity
    00:00 +13°C° 0 mm 2 mps 766 mmHg 71%
    01:00 +13°C° 0 mm 2 mps 766 mmHg 71%
    02:00 +12°C° 0 mm 2 mps 766 mmHg 70%
    03:00 +12°C° 0 mm 2 mps 766 mmHg 69%
    04:00 +12°C° 0 mm 2 mps 766 mmHg 69%
    05:00 +12°C° 0 mm 2 mps 766 mmHg 67%
    06:00 +12°C° 0 mm 2 mps 766 mmHg 66%
    07:00 +10°C° 0 mm 2 mps 766 mmHg 64%
    08:00 +14°C° 0 mm 2 mps 766 mmHg 55%
    09:00 +17°C° 0 mm 2 mps 766 mmHg 46%
    10:00 +20°C° 0 mm 3 mps 767 mmHg 38%
    11:00 +21°C° 0 mm 2 mps 766 mmHg 34%
    12:00 +24°C° 0 mm 2 mps 766 mmHg 30%
    13:00 +25°C° 0 mm 2 mps 765 mmHg 27%
    14:00 +24°C° 0 mm 3 mps 765 mmHg 31%
    15:00 +22°C° 0 mm 3 mps 765 mmHg 36%
    16:00 +22°C° 0 mm 3 mps 765 mmHg 41%
    17:00 +20°C° 0 mm 3 mps 765 mmHg 50%
    18:00 +18°C° 0 mm 3 mps 766 mmHg 59%
    19:00 +16°C° 0 mm 3 mps 766 mmHg 67%
    20:00 +14°C° 0 mm 3 mps 767 mmHg 70%
    21:00 +14°C° 0 mm 3 mps 767 mmHg 73%
    22:00 +13°C° 0 mm 3 mps 767 mmHg 76%
    23:00 +13°C° 0 mm 3 mps 767 mmHg 78%

    Tomorrow, 25 June, Monday

    Time Temperature Precipitation Wind Pressure Humidity
    00:00 +12°C° 0 mm 3 mps 767 mmHg 80%
    01:00 +11°C° 0 mm 3 mps 768 mmHg 82%
    02:00 +11°C° 0.1 mm 3 mps 768 mmHg 84%
    03:00 +11°C° 0.1 mm 3 mps 767 mmHg 86%
    04:00 +11°C° 0.1 mm 3 mps 767 mmHg 87%
    05:00 +11°C° 0.1 mm 3 mps 768 mmHg 87%
    06:00 +11°C° 0.1 mm 3 mps 768 mmHg 87%
    07:00 +11°C° 0.1 mm 3 mps 768 mmHg 87%
    08:00 +13°C° 0.1 mm 4 mps 768 mmHg 78%
    09:00 +17°C° 0.1 mm 4 mps 769 mmHg 69%
    10:00 +19°C° 0.1 mm 4 mps 769 mmHg 60%
    11:00 +20°C° 0.1 mm 4 mps 768 mmHg 57%
    12:00 +21°C° 0.1 mm 5 mps 768 mmHg 53%
    13:00 +22°C° 0.1 mm 5 mps 767 mmHg 49%
    14:00 +21°C° 0.1 mm 5 mps 767 mmHg 53%
    15:00 +21°C° 0.1 mm 5 mps 767 mmHg 56%
    16:00 +20°C° 0.1 mm 5 mps 767 mmHg 59%
    17:00 +19°C° 0.1 mm 5 mps 768 mmHg 66%
    18:00 +16°C° 0.1 mm 5 mps 768 mmHg 73%
    19:00 +15°C° 0.1 mm 4 mps 769 mmHg 80%
    20:00 +15°C° 0.2 mm 4 mps 769 mmHg 82%
    21:00 +14°C° 0.2 mm 4 mps 769 mmHg 84%
    22:00 +14°C° 0.2 mm 4 mps 770 mmHg 86%
    23:00 +14°C° 0.3 mm 4 mps 770 mmHg 86%

    Day after tomorrow, 26 June, Tuesday

    Time Temperature Precipitation Wind Pressure Humidity
    00:00 +13°C° 0.3 mm 4 mps 770 mmHg 86%
    01:00 +13°C° 0.3 mm 4 mps 770 mmHg 87%
    02:00 +13°C° 0.3 mm 4 mps 769 mmHg 87%
    03:00 +13°C° 0.3 mm 4 mps 769 mmHg 86%
    04:00 +13°C° 0.3 mm 4 mps 769 mmHg 86%
    05:00 +13°C° 0.2 mm 4 mps 769 mmHg 86%
    06:00 +13°C° 0.2 mm 4 mps 770 mmHg 86%
    07:00 +13°C° 0.2 mm 4 mps 770 mmHg 86%
    08:00 +14°C° 0.1 mm 4 mps 770 mmHg 79%
    09:00 +17°C° 0.1 mm 4 mps 770 mmHg 72%
    10:00 +19°C° 0.1 mm 4 mps 771 mmHg 65%
    11:00 +20°C° 0.1 mm 4 mps 770 mmHg 62%
    12:00 +20°C° 0.1 mm 5 mps 770 mmHg 59%
    13:00 +21°C° 0.1 mm 5 mps 769 mmHg 55%
    14:00 +21°C° 0.1 mm 4 mps 769 mmHg 58%
    15:00 +20°C° 0.1 mm 4 mps 769 mmHg 61%
    16:00 +20°C° 0.1 mm 4 mps 769 mmHg 63%
    17:00 +19°C° 0.2 mm 4 mps 769 mmHg 70%
    18:00 +18°C° 0.2 mm 4 mps 770 mmHg 76%
    19:00 +15°C° 0.2 mm 4 mps 770 mmHg 82%
    20:00 +15°C° 0.3 mm 4 mps 770 mmHg 84%
    21:00 +15°C° 0.3 mm 4 mps 770 mmHg 85%
    22:00 +15°C° 0.3 mm 4 mps 771 mmHg 86%
    23:00 +15°C° 0.1 mm 4 mps 770 mmHg 86%

    27 June, Wednesday

    Time Temperature Precipitation Wind Pressure Humidity
    00:00 +16°C° 0.1 mm 3 mps 770 mmHg 86%
    01:00 +16°C° 0.1 mm 3 mps 770 mmHg 86%
    02:00 +15°C° 0.1 mm 4 mps 769 mmHg 87%
    03:00 +14°C° 0.1 mm 4 mps 769 mmHg 87%
    04:00 +14°C° 0.1 mm 4 mps 769 mmHg 88%
    05:00 +14°C° 0.3 mm 4 mps 769 mmHg 88%
    06:00 +14°C° 0.3 mm 4 mps 770 mmHg 89%
    07:00 +14°C° 0.3 mm 4 mps 770 mmHg 89%
    08:00 +15°C° 0.4 mm 4 mps 770 mmHg 87%
    09:00 +17°C° 0.4 mm 4 mps 770 mmHg 85%
    10:00 +17°C° 0.4 mm 4 mps 770 mmHg 83%
    11:00 +18°C° 0.5 mm 4 mps 769 mmHg 80%
    12:00 +18°C° 0.5 mm 4 mps 768 mmHg 77%
    13:00 +19°C° 0.5 mm 4 mps 768 mmHg 74%
    14:00 +18°C° 0.2 mm 4 mps 768 mmHg 75%
    15:00 +18°C° 0.2 mm 4 mps 767 mmHg 76%
    16:00 +18°C° 0.2 mm 3 mps 767 mmHg 77%
    17:00 +17°C° 0.6 mm 3 mps 768 mmHg 81%
    18:00 +17°C° 0.6 mm 3 mps 768 mmHg 85%
    19:00 +16°C° 0.6 mm 2 mps 768 mmHg 89%
    20:00 +16°C° 0.4 mm 2 mps 768 mmHg 90%
    21:00 +16°C° 0.4 mm 2 mps 768 mmHg 91%
    22:00 +15°C° 0.4 mm 2 mps 768 mmHg 92%
    23:00 +15°C° 0.4 mm 2 mps 768 mmHg 92%

    28 June, Thursday

    Time Temperature Precipitation Wind Pressure Humidity
    00:00 +15°C° 0.4 mm 2 mps 767 mmHg 93%
    01:00 +16°C° 0.4 mm 3 mps 767 mmHg 93%
    02:00 +16°C° 0.4 mm 2 mps 767 mmHg 93%
    03:00 +16°C° 0.4 mm 2 mps 766 mmHg 93%
    04:00 +16°C° 0.4 mm 2 mps 766 mmHg 92%
    05:00 +16°C° 0.3 mm 2 mps 766 mmHg 92%
    06:00 +16°C° 0.3 mm 2 mps 767 mmHg 92%
    07:00 +16°C° 0.3 mm 2 mps 767 mmHg 92%
    08:00 +17°C° 0.1 mm 2 mps 767 mmHg 88%
    09:00 +18°C° 0.1 mm 2 mps 767 mmHg 84%
    10:00 +19°C° 0.1 mm 2 mps 767 mmHg 81%
    11:00 +20°C° 0.1 mm 2 mps 766 mmHg 77%
    12:00 +20°C° 0.1 mm 2 mps 765 mmHg 73%
    13:00 +21°C° 0.1 mm 2 mps 765 mmHg 69%
    14:00 +21°C° 0.1 mm 2 mps 765 mmHg 70%
    15:00 +21°C° 0.1 mm 3 mps 765 mmHg 71%
    16:00 +20°C° 0.1 mm 3 mps 764 mmHg 72%
    17:00 +19°C° 0 mm 3 mps 765 mmHg 78%
    18:00 +18°C° 0 mm 3 mps 765 mmHg 84%
    19:00 +17°C° 0 mm 3 mps 766 mmHg 89%
    20:00 +16°C° 0 mm 3 mps 766 mmHg 90%
    21:00 +16°C° 0 mm 3 mps 766 mmHg 91%
    22:00 +16°C° 0 mm 3 mps 766 mmHg 92%
    23:00 +14°C° 0 mm 3 mps 766 mmHg 92%

    29 June, Friday

    Time Temperature Precipitation Wind Pressure Humidity
    00:00 +14°C° 0 mm 3 mps 766 mmHg 92%
    01:00 +15°C° 0 mm 2 mps 765 mmHg 93%
    02:00 +14°C° 0 mm 3 mps 765 mmHg 93%
    03:00 +13°C° 0 mm 3 mps 765 mmHg 93%
    04:00 +13°C° 0 mm 3 mps 765 mmHg 93%
    05:00 +13°C° 0 mm 3 mps 765 mmHg 93%
    06:00 +13°C° 0 mm 3 mps 766 mmHg 93%
    07:00 +13°C° 0 mm 3 mps 766 mmHg 93%
    08:00 +16°C° 0 mm 3 mps 766 mmHg 87%
    09:00 +17°C° 0 mm 3 mps 766 mmHg 81%
    10:00 +19°C° 0 mm 2 mps 766 mmHg 75%
    11:00 +20°C° 0 mm 2 mps 766 mmHg 73%
    12:00 +21°C° 0 mm 2 mps 765 mmHg 71%
    13:00 +21°C° 0 mm 3 mps 765 mmHg 69%
    14:00 +21°C° 0 mm 2 mps 765 mmHg 70%
    15:00 +21°C° 0 mm 2 mps 765 mmHg 71%
    16:00 +21°C° 0 mm 2 mps 765 mmHg 72%
    17:00 +20°C° 0 mm 2 mps 765 mmHg 79%
    18:00 +19°C° 0 mm 2 mps 765 mmHg 85%
    19:00 +18°C° 0 mm 2 mps 766 mmHg 91%
    20:00 +18°C° 0 mm 2 mps 766 mmHg 92%
    21:00 +19°C° 0 mm 1 mps 766 mmHg 93%
    22:00 +18°C° 0 mm 1 mps 766 mmHg 93%
    23:00 +18°C° 0 mm 1 mps 766 mmHg 94%
    Show more